| time (UTC) | temp F | wind direction | speed knots | gust knots | rain 1hr in | rain 24hr in | rain mn in | humidity % | barometer mb |
| 20260507042119 | 44 | 307 | 0.0 | 1.7 | 0.00 | 0.02 | 0.00 | 90 | 1013.4 |
| 20260507041618 | 44 | 331 | 0.0 | 0.0 | 0.00 | 0.02 | 0.00 | 90 | 1013.4 |
| 20260507041117 | 44 | 328 | 0.0 | 2.6 | 0.00 | 0.02 | 0.00 | 89 | 1013.4 |
| 20260507040616 | 44 | 5 | 0.0 | 2.6 | 0.00 | 0.02 | 0.00 | 89 | 1013.3 |
| 20260507040113 | 44 | 348 | 0.0 | 0.9 | 0.00 | 0.02 | 0.00 | 89 | 1013.3 |
| 20260507035612 | 44 | 351 | 0.0 | 1.7 | 0.00 | 0.02 | 0.00 | 89 | 1013.2 |
| 20260507035111 | 44 | 313 | 0.0 | 2.6 | 0.00 | 0.02 | 0.00 | 89 | 1013.3 |
| 20260507034609 | 44 | 0 | 0.9 | 2.6 | 0.00 | 0.02 | 0.00 | 89 | 1013.2 |
| 20260507034109 | 44 | 335 | 0.9 | 2.6 | 0.00 | 0.02 | 0.00 | 89 | 1013.2 |
| 20260507033605 | 44 | 336 | 0.9 | 3.5 | 0.00 | 0.02 | 0.00 | 89 | 1013.1 |
| 20260507033105 | 44 | 24 | 1.7 | 3.5 | 0.00 | 0.02 | 0.00 | 89 | 1013.2 |
| 20260507032603 | 44 | 337 | 0.9 | 2.6 | 0.00 | 0.02 | 0.00 | 89 | 1013.2 |
| 20260507032104 | 44 | 345 | 0.9 | 3.5 | 0.00 | 0.03 | 0.00 | 89 | 1013.2 |
| 20260507031844 | 44 | 346 | 0.9 | 3.5 | 0.00 | 0.03 | 0.00 | 89 | 1013.2 |
| 20260507031348 | 44 | 350 | 0.9 | 3.5 | 0.00 | 0.03 | 0.00 | 89 | 1013.2 |
| 20260507030847 | 44 | 19 | 0.9 | 3.5 | 0.00 | 0.03 | 0.00 | 89 | 1013.1 |
| 20260507030106 | 45 | 355 | 0.9 | 3.5 | 0.00 | 0.04 | 0.00 | 89 | 1013.1 |
| 20260507025602 | 45 | 11 | 0.9 | 3.5 | 0.00 | 0.04 | 0.00 | 89 | 1013.1 |
| 20260507025103 | 45 | 11 | 0.9 | 3.5 | 0.00 | 0.04 | 0.00 | 89 | 1013.1 |
| 20260507024656 | 45 | 339 | 0.9 | 3.5 | 0.00 | 0.04 | 0.00 | 89 | 1013.0 |
| 20260507024640 | 45 | 346 | 0.9 | 3.5 | 0.00 | 0.04 | 0.00 | 88 | 1013.0 |
| 20260507023602 | 45 | 343 | 0.9 | 2.6 | 0.00 | 0.04 | 0.00 | 89 | 1013.0 |
| 20260507023105 | 45 | 342 | 0.9 | 3.5 | 0.00 | 0.04 | 0.00 | 89 | 1012.9 |
| 20260507022602 | 45 | 19 | 1.7 | 3.5 | 0.00 | 0.05 | 0.00 | 89 | 1012.9 |
| 20260507022412 | 45 | 9 | 0.9 | 3.5 | 0.00 | 0.05 | 0.00 | 88 | 1012.8 |
| 20260507021855 | 45 | 53 | 0.9 | 3.5 | 0.00 | 0.05 | 0.00 | 88 | 1012.8 |
| 20260507021104 | 45 | 23 | 1.7 | 3.5 | 0.00 | 0.05 | 0.00 | 88 | 1012.8 |
| 20260507020602 | 45 | 5 | 1.7 | 3.5 | 0.00 | 0.05 | 0.00 | 88 | 1012.8 |
| 20260507015604 | 46 | 5 | 1.7 | 4.3 | 0.00 | 0.06 | 0.00 | 88 | 1012.7 |
| 20260507015057 | 46 | 29 | 0.9 | 3.5 | 0.00 | 0.06 | 0.00 | 88 | 1012.7 |
| 20260507014551 | 46 | 34 | 0.9 | 2.6 | 0.00 | 0.06 | 0.00 | 88 | 1012.7 |
| 20260507014048 | 46 | 355 | 0.9 | 4.3 | 0.00 | 0.06 | 0.00 | 88 | 1012.7 |
| 20260507013539 | 46 | 341 | 1.7 | 4.3 | 0.00 | 0.06 | 0.00 | 88 | 1012.7 |
| 20260507013036 | 46 | 277 | 1.7 | 3.5 | 0.00 | 0.06 | 0.00 | 88 | 1012.7 |
| 20260507012536 | 46 | 11 | 1.7 | 3.5 | 0.00 | 0.06 | 0.00 | 88 | 1012.7 |
| 20260507012037 | 46 | 30 | 1.7 | 3.5 | 0.00 | 0.06 | 0.00 | 88 | 1012.6 |
| 20260507011535 | 46 | 316 | 1.7 | 4.3 | 0.00 | 0.07 | 0.00 | 88 | 1012.6 |
| 20260507011038 | 46 | 36 | 1.7 | 4.3 | 0.00 | 0.07 | 0.00 | 88 | 1012.5 |
| 20260507010536 | 46 | 19 | 1.7 | 4.3 | 0.00 | 0.07 | 0.00 | 88 | 1012.5 |
| 20260507010038 | 46 | 36 | 0.9 | 4.3 | 0.00 | 0.07 | 0.00 | 88 | 1012.4 |
| 20260507005536 | 46 | 11 | 1.7 | 7.0 | 0.00 | 0.07 | 0.00 | 87 | 1012.4 |
| 20260507005035 | 46 | 11 | 1.7 | 7.0 | 0.00 | 0.07 | 0.00 | 87 | 1012.4 |
| 20260507004535 | 46 | 16 | 1.7 | 4.3 | 0.00 | 0.07 | 0.00 | 87 | 1012.4 |
| 20260507004131 | 46 | 5 | 1.7 | 5.2 | 0.00 | 0.07 | 0.00 | 87 | 1012.3 |
| 20260507004113 | 46 | 14 | 1.7 | 4.3 | 0.00 | 0.07 | 0.00 | 87 | 1012.3 |
| 20260507003031 | 47 | 337 | 1.7 | 6.1 | 0.00 | 0.07 | 0.00 | 86 | 1012.3 |
| 20260507002532 | 47 | 324 | 2.6 | 6.1 | 0.00 | 0.07 | 0.00 | 86 | 1012.3 |
| 20260507002322 | 47 | 68 | 2.6 | 6.1 | 0.00 | 0.07 | 0.00 | 86 | 1012.3 |
| 20260507001534 | 47 | 19 | 2.6 | 7.0 | 0.00 | 0.07 | 0.00 | 86 | 1012.1 |
| 20260507001031 | 47 | 323 | 2.6 | 7.0 | 0.00 | 0.07 | 0.00 | 85 | 1012.1 |
| 20260507000526 | 47 | 25 | 2.6 | 7.0 | 0.00 | 0.07 | 0.00 | 85 | 1012.0 |
| 20260507000025 | 47 | 14 | 2.6 | 6.1 | 0.00 | 0.07 | 0.00 | 85 | 1012.1 |
| 20260506235527 | 48 | 21 | 1.7 | 5.2 | 0.00 | 0.07 | 0.00 | 85 | 1012.1 |
| 20260506235025 | 48 | 333 | 1.7 | 5.2 | 0.00 | 0.07 | 0.00 | 84 | 1012.1 |
| 20260506234526 | 48 | 11 | 2.6 | 7.0 | 0.00 | 0.07 | 0.00 | 84 | 1012.1 |
| 20260506234029 | 48 | 343 | 3.5 | 7.8 | 0.00 | 0.07 | 0.00 | 84 | 1012.1 |
| 20260506233819 | 48 | 325 | 3.5 | 8.7 | 0.00 | 0.07 | 0.00 | 84 | 1012.1 |
| 20260506233026 | 49 | 351 | 2.6 | 8.7 | 0.00 | 0.07 | 0.00 | 84 | 1012.0 |
| 20260506232527 | 49 | 12 | 2.6 | 8.7 | 0.00 | 0.07 | 0.00 | 83 | 1012.1 |
| 20260506232029 | 49 | 5 | 2.6 | 8.7 | 0.00 | 0.07 | 0.00 | 83 | 1012.1 |
| 20260506231812 | 49 | 0 | 2.6 | 7.8 | 0.00 | 0.07 | 0.00 | 83 | 1012.0 |
| 20260506231019 | 49 | 349 | 3.5 | 7.8 | 0.00 | 0.07 | 0.00 | 83 | 1012.1 |
| 20260506230517 | 49 | 18 | 3.5 | 7.0 | 0.00 | 0.07 | 0.00 | 84 | 1012.1 |
| 20260506230017 | 49 | 340 | 3.5 | 7.0 | 0.00 | 0.07 | 0.00 | 84 | 1012.0 |
| 20260506225517 | 49 | 355 | 2.6 | 7.0 | 0.00 | 0.07 | 0.00 | 84 | 1011.9 |
| 20260506225017 | 49 | 345 | 2.6 | 7.8 | 0.00 | 0.07 | 0.00 | 84 | 1011.9 |
| 20260506224520 | 49 | 13 | 2.6 | 7.8 | 0.00 | 0.07 | 0.00 | 84 | 1011.9 |
| 20260506224017 | 50 | 23 | 2.6 | 6.1 | 0.00 | 0.07 | 0.00 | 85 | 1011.9 |
| 20260506223519 | 50 | 69 | 1.7 | 5.2 | 0.00 | 0.07 | 0.00 | 85 | 1011.8 |
| 20260506223018 | 50 | 305 | 1.7 | 4.3 | 0.00 | 0.07 | 0.00 | 85 | 1011.7 |
| 20260506222518 | 50 | 5 | 1.7 | 4.3 | 0.00 | 0.07 | 0.00 | 85 | 1011.7 |
| 20260506222017 | 50 | 330 | 1.7 | 4.3 | 0.00 | 0.07 | 0.00 | 85 | 1011.7 |
| 20260506221518 | 50 | 355 | 0.9 | 4.3 | 0.00 | 0.07 | 0.00 | 85 | 1011.7 |
| 20260506221018 | 50 | 10 | 0.0 | 1.7 | 0.00 | 0.07 | 0.00 | 85 | 1011.7 |
| 20260506220517 | 50 | 30 | 0.0 | 0.9 | 0.00 | 0.07 | 0.00 | 84 | 1011.8 |
| 20260506220018 | 50 | 319 | 0.0 | 0.9 | 0.00 | 0.07 | 0.00 | 84 | 1011.7 |
| 20260506215518 | 50 | 319 | 0.0 | 0.9 | 0.00 | 0.07 | 0.07 | 84 | 1011.7 |
| 20260506215016 | 50 | 319 | 0.0 | 0.9 | 0.00 | 0.07 | 0.07 | 84 | 1011.6 |
| 20260506214518 | 50 | 319 | 0.0 | 0.0 | 0.00 | 0.07 | 0.07 | 84 | 1011.7 |
| 20260506214017 | 50 | 13 | 0.0 | 0.0 | 0.00 | 0.07 | 0.07 | 84 | 1011.6 |
| 20260506213514 | 50 | 84 | 0.0 | 0.0 | 0.00 | 0.07 | 0.07 | 84 | 1011.6 |
| 20260506213015 | 50 | 84 | 0.0 | 0.0 | 0.00 | 0.07 | 0.07 | 83 | 1011.6 |
| 20260506212511 | 50 | 84 | 0.0 | 0.0 | 0.00 | 0.07 | 0.07 | 84 | 1011.5 |
| 20260506212008 | 50 | 21 | 0.9 | 3.5 | 0.00 | 0.07 | 0.07 | 84 | 1011.5 |
| 20260506211505 | 50 | 27 | 0.9 | 3.5 | 0.00 | 0.07 | 0.07 | 84 | 1011.5 |
| 20260506211007 | 50 | 327 | 0.0 | 2.6 | 0.00 | 0.07 | 0.07 | 84 | 1011.5 |
| 20260506210506 | 50 | 355 | 0.0 | 0.9 | 0.00 | 0.07 | 0.07 | 84 | 1011.5 |
| 20260506210012 | 50 | 28 | 0.0 | 1.7 | 0.00 | 0.07 | 0.07 | 84 | 1011.5 |
| 20260506205800 | 50 | 28 | 0.0 | 1.7 | 0.00 | 0.07 | 0.07 | 83 | 1011.5 |
| 20260506205009 | 50 | 5 | 0.0 | 0.9 | 0.00 | 0.07 | 0.07 | 83 | 1011.5 |
| 20260506204749 | 50 | 355 | 0.0 | 1.7 | 0.00 | 0.07 | 0.07 | 83 | 1011.5 |
| 20260506204258 | 50 | 348 | 0.0 | 1.7 | 0.00 | 0.07 | 0.07 | 83 | 1011.4 |
| 20260506203507 | 51 | 302 | 0.0 | 0.9 | 0.00 | 0.07 | 0.07 | 83 | 1011.4 |
| 20260506203007 | 51 | 302 | 0.0 | 0.0 | 0.00 | 0.07 | 0.07 | 83 | 1011.3 |
| 20260506202507 | 51 | 302 | 0.0 | 0.0 | 0.00 | 0.07 | 0.07 | 82 | 1011.3 |
| 20260506202008 | 51 | 302 | 0.0 | 0.0 | 0.00 | 0.07 | 0.07 | 82 | 1011.2 |
| 20260506201505 | 51 | 302 | 0.0 | 1.7 | 0.00 | 0.07 | 0.07 | 81 | 1011.2 |
| 20260506201008 | 51 | 310 | 0.0 | 1.7 | 0.00 | 0.07 | 0.07 | 81 | 1011.2 |
| 20260506200758 | 51 | 338 | 0.0 | 1.7 | 0.00 | 0.07 | 0.07 | 81 | 1011.2 |
| 20260506200006 | 51 | 330 | 0.0 | 0.9 | 0.00 | 0.07 | 0.07 | 80 | 1011.1 |
| 20260506195505 | 51 | 330 | 0.0 | 2.6 | 0.00 | 0.07 | 0.07 | 80 | 1011.1 |
| 20260506195006 | 51 | 309 | 0.0 | 2.6 | 0.00 | 0.07 | 0.07 | 80 | 1011.0 |
| 20260506194754 | 51 | 355 | 0.0 | 2.6 | 0.00 | 0.07 | 0.07 | 80 | 1011.0 |
| 20260506194001 | 51 | 14 | 0.0 | 1.7 | 0.00 | 0.07 | 0.07 | 80 | 1010.9 |
| 20260506193455 | 51 | 5 | 0.0 | 2.6 | 0.00 | 0.07 | 0.07 | 80 | 1010.9 |
| 20260506193252 | 51 | 18 | 0.0 | 2.6 | 0.00 | 0.07 | 0.07 | 80 | 1010.9 |
| 20260506192455 | 51 | 9 | 0.0 | 0.9 | 0.00 | 0.07 | 0.07 | 80 | 1010.8 |
| 20260506191950 | 51 | 9 | 0.0 | 0.0 | 0.00 | 0.07 | 0.07 | 79 | 1010.7 |
| 20260506191451 | 51 | 9 | 0.0 | 0.0 | 0.00 | 0.07 | 0.07 | 79 | 1010.6 |
| 20260506190950 | 51 | 9 | 0.0 | 1.7 | 0.00 | 0.07 | 0.07 | 79 | 1010.6 |
| 20260506190738 | 51 | 11 | 0.0 | 1.7 | 0.00 | 0.07 | 0.07 | 79 | 1010.5 |
| 20260506185947 | 51 | 11 | 0.0 | 1.7 | 0.00 | 0.07 | 0.07 | 79 | 1010.5 |
| 20260506185448 | 51 | 5 | 0.0 | 3.5 | 0.00 | 0.07 | 0.07 | 78 | 1010.5 |
| 20260506184947 | 51 | 355 | 0.0 | 3.5 | 0.00 | 0.07 | 0.07 | 79 | 1010.5 |
| 20260506184449 | 51 | 5 | 0.0 | 1.7 | 0.00 | 0.07 | 0.07 | 79 | 1010.4 |
| 20260506183945 | 51 | 14 | 0.9 | 2.6 | 0.00 | 0.07 | 0.07 | 78 | 1010.3 |
| 20260506183445 | 51 | 5 | 0.9 | 3.5 | 0.00 | 0.07 | 0.07 | 78 | 1010.3 |
| 20260506182946 | 51 | 0 | 1.7 | 3.5 | 0.00 | 0.07 | 0.07 | 77 | 1010.3 |
| 20260506182446 | 51 | 60 | 1.7 | 4.3 | 0.00 | 0.07 | 0.07 | 77 | 1010.2 |
| 20260506181945 | 51 | 24 | 1.7 | 4.3 | 0.00 | 0.07 | 0.07 | 77 | 1010.1 |
| 20260506181438 | 52 | 24 | 2.6 | 5.2 | 0.00 | 0.07 | 0.07 | 76 | 1010.1 |
| 20260506180939 | 52 | 32 | 2.6 | 5.2 | 0.00 | 0.07 | 0.07 | 76 | 1010.1 |
| 20260506180441 | 52 | 347 | 2.6 | 7.0 | 0.00 | 0.07 | 0.07 | 76 | 1010.0 |
| 20260506180244 | 52 | 355 | 2.6 | 7.0 | 0.00 | 0.07 | 0.07 | 76 | 1009.9 |
| 20260506175436 | 52 | 5 | 2.6 | 7.0 | 0.00 | 0.07 | 0.07 | 76 | 1009.9 |
| 20260506175345 | 52 | 20 | 2.6 | 8.7 | 0.00 | 0.07 | 0.07 | 76 | 1009.7 |
| 20260506175016 | 52 | 5 | 2.6 | 7.0 | 0.00 | 0.07 | 0.07 | 76 | 1009.8 |
| 20260506173937 | 52 | 32 | 2.6 | 8.7 | 0.00 | 0.07 | 0.07 | 77 | 1009.6 |
| 20260506173435 | 52 | 338 | 2.6 | 7.8 | 0.00 | 0.07 | 0.07 | 76 | 1009.6 |
| 20260506172933 | 52 | 24 | 1.7 | 6.1 | 0.00 | 0.07 | 0.07 | 77 | 1009.6 |
| 20260506172434 | 52 | 84 | 1.7 | 6.1 | 0.00 | 0.07 | 0.07 | 77 | 1009.5 |
| 20260506172244 | 52 | 350 | 1.7 | 7.8 | 0.00 | 0.07 | 0.07 | 77 | 1009.4 |
| 20260506171431 | 52 | 19 | 2.6 | 7.8 | 0.00 | 0.07 | 0.07 | 76 | 1009.4 |
| 20260506170932 | 52 | 53 | 2.6 | 5.2 | 0.00 | 0.07 | 0.07 | 76 | 1009.2 |
| 20260506170432 | 52 | 16 | 2.6 | 5.2 | 0.00 | 0.07 | 0.07 | 76 | 1009.2 |
| 20260506165932 | 52 | 0 | 2.6 | 4.3 | 0.00 | 0.07 | 0.07 | 76 | 1009.2 |
| 20260506165544 | 52 | 338 | 2.6 | 7.8 | 0.00 | 0.07 | 0.07 | 76 | 1009.3 |
| 20260506165517 | 52 | 5 | 1.7 | 5.2 | 0.00 | 0.07 | 0.07 | 76 | 1009.3 |
| 20260506164437 | 52 | 44 | 3.5 | 7.8 | 0.00 | 0.07 | 0.07 | 75 | 1009.3 |
| 20260506163929 | 52 | 59 | 2.6 | 7.8 | 0.00 | 0.07 | 0.07 | 75 | 1009.3 |
| 20260506163429 | 52 | 355 | 2.6 | 7.0 | 0.00 | 0.07 | 0.07 | 76 | 1009.3 |
| 20260506163235 | 52 | 9 | 2.6 | 7.0 | 0.00 | 0.07 | 0.07 | 76 | 1009.2 |
| 20260506162430 | 52 | 0 | 2.6 | 7.8 | 0.00 | 0.07 | 0.07 | 76 | 1009.2 |
| 20260506161926 | 52 | 59 | 2.6 | 7.8 | 0.00 | 0.07 | 0.07 | 75 | 1009.3 |
| 20260506161741 | 52 | 327 | 2.6 | 8.7 | 0.00 | 0.07 | 0.07 | 76 | 1009.2 |
| 20260506160927 | 52 | 86 | 3.5 | 9.6 | 0.00 | 0.07 | 0.07 | 76 | 1009.2 |
| 20260506160425 | 52 | 62 | 3.5 | 11.3 | 0.00 | 0.07 | 0.07 | 77 | 1009.2 |
| 20260506155927 | 52 | 30 | 3.5 | 11.3 | 0.00 | 0.07 | 0.07 | 77 | 1009.2 |
| 20260506155427 | 51 | 26 | 3.5 | 7.8 | 0.00 | 0.07 | 0.07 | 79 | 1009.2 |
| 20260506154926 | 51 | 0 | 3.5 | 9.6 | 0.00 | 0.07 | 0.07 | 79 | 1009.1 |
| 20260506154529 | 51 | 5 | 4.3 | 13.9 | 0.00 | 0.07 | 0.07 | 79 | 1009.2 |
| 20260506154508 | 51 | 80 | 4.3 | 9.6 | 0.00 | 0.07 | 0.07 | 79 | 1009.2 |
| 20260506153423 | 51 | 76 | 4.3 | 13.9 | 0.00 | 0.07 | 0.07 | 80 | 1009.3 |
| 20260506152923 | 51 | 96 | 3.5 | 8.7 | 0.00 | 0.07 | 0.07 | 80 | 1009.2 |
| 20260506152423 | 51 | 351 | 3.5 | 8.7 | 0.00 | 0.07 | 0.07 | 80 | 1009.2 |
| 20260506151925 | 51 | 46 | 3.5 | 7.8 | 0.00 | 0.07 | 0.07 | 80 | 1009.2 |
| 20260506151713 | 51 | 16 | 3.5 | 9.6 | 0.00 | 0.07 | 0.07 | 81 | 1009.2 |
| 20260506150922 | 51 | 13 | 4.3 | 11.3 | 0.00 | 0.07 | 0.07 | 81 | 1009.2 |
| 20260506150422 | 51 | 112 | 3.5 | 11.3 | 0.00 | 0.07 | 0.07 | 81 | 1009.3 |
| 20260506150332 | 51 | 53 | 4.3 | 9.6 | 0.00 | 0.07 | 0.07 | 82 | 1009.2 |
| 20260506150325 | 51 | 355 | 3.5 | 9.6 | 0.00 | 0.07 | 0.07 | 82 | 1009.2 |
| 20260506145023 | 51 | 0 | 3.5 | 10.4 | 0.00 | 0.07 | 0.07 | 82 | 1009.1 |
| 20260506145003 | 51 | 22 | 3.5 | 10.4 | 0.00 | 0.07 | 0.07 | 82 | 1009.1 |
| 20260506143921 | 51 | 31 | 2.6 | 9.6 | 0.00 | 0.07 | 0.07 | 83 | 1009.0 |
| 20260506143420 | 51 | 21 | 2.6 | 7.8 | 0.00 | 0.07 | 0.07 | 83 | 1009.0 |
| 20260506143224 | 51 | 84 | 3.5 | 7.8 | 0.00 | 0.07 | 0.07 | 83 | 1009.0 |
| 20260506142421 | 51 | 30 | 3.5 | 7.8 | 0.00 | 0.07 | 0.07 | 84 | 1009.0 |
| 20260506141921 | 51 | 46 | 3.5 | 8.7 | 0.00 | 0.07 | 0.07 | 84 | 1009.0 |
| 20260506141418 | 51 | 318 | 4.3 | 11.3 | 0.00 | 0.07 | 0.07 | 84 | 1009.0 |
| 20260506141023 | 51 | 333 | 3.5 | 8.7 | 0.00 | 0.07 | 0.07 | 84 | 1009.0 |
| 20260506141002 | 51 | 5 | 4.3 | 11.3 | 0.00 | 0.07 | 0.07 | 84 | 1009.0 |
| 20260506135922 | 51 | 348 | 3.5 | 8.7 | 0.00 | 0.07 | 0.07 | 84 | 1009.0 |
| 20260506135421 | 51 | 0 | 3.5 | 8.7 | 0.00 | 0.07 | 0.07 | 84 | 1009.0 |
| 20260506134918 | 51 | 42 | 2.6 | 8.7 | 0.00 | 0.07 | 0.07 | 84 | 1009.0 |
| 20260506134419 | 51 | 70 | 3.5 | 8.7 | 0.00 | 0.07 | 0.07 | 84 | 1008.9 |
| 20260506134223 | 51 | 46 | 4.3 | 9.6 | 0.00 | 0.07 | 0.07 | 83 | 1008.9 |
| 20260506133421 | 51 | 0 | 4.3 | 10.4 | 0.00 | 0.07 | 0.07 | 83 | 1009.0 |
| 20260506133238 | 51 | 350 | 4.3 | 10.4 | 0.00 | 0.07 | 0.07 | 82 | 1008.9 |
| 20260506132419 | 51 | 71 | 3.5 | 8.7 | 0.00 | 0.07 | 0.07 | 82 | 1008.9 |
| 20260506131919 | 51 | 325 | 4.3 | 9.6 | 0.00 | 0.07 | 0.07 | 82 | 1008.9 |
| 20260506131418 | 51 | 49 | 4.3 | 9.6 | 0.00 | 0.07 | 0.07 | 82 | 1008.8 |
| 20260506130919 | 51 | 355 | 4.3 | 8.7 | 0.00 | 0.07 | 0.07 | 82 | 1008.8 |
| 20260506130418 | 51 | 326 | 4.3 | 9.6 | 0.00 | 0.07 | 0.07 | 81 | 1008.8 |
| 20260506125917 | 51 | 319 | 4.3 | 10.4 | 0.00 | 0.07 | 0.07 | 81 | 1008.8 |
| 20260506125417 | 51 | 355 | 3.5 | 10.4 | 0.00 | 0.07 | 0.07 | 80 | 1008.7 |
| 20260506124918 | 51 | 47 | 2.6 | 7.8 | 0.00 | 0.07 | 0.07 | 81 | 1008.7 |
| 20260506124417 | 51 | 28 | 2.6 | 7.8 | 0.00 | 0.07 | 0.07 | 80 | 1008.6 |
| 20260506123917 | 51 | 47 | 3.5 | 7.8 | 0.00 | 0.07 | 0.07 | 80 | 1008.6 |
| 20260506123416 | 51 | 10 | 4.3 | 11.3 | 0.00 | 0.07 | 0.07 | 80 | 1008.5 |
| 20260506122918 | 51 | 38 | 5.2 | 11.3 | 0.00 | 0.07 | 0.07 | 79 | 1008.5 |
| 20260506122419 | 51 | 321 | 4.3 | 11.3 | 0.00 | 0.07 | 0.07 | 78 | 1008.5 |
| 20260506121915 | 52 | 34 | 4.3 | 10.4 | 0.00 | 0.07 | 0.07 | 78 | 1008.5 |
| 20260506121415 | 52 | 74 | 3.5 | 9.6 | 0.00 | 0.07 | 0.07 | 77 | 1008.4 |
| 20260506121229 | 52 | 348 | 3.5 | 8.7 | 0.00 | 0.07 | 0.07 | 77 | 1008.4 |
| 20260506120416 | 52 | 5 | 4.3 | 8.7 | 0.00 | 0.07 | 0.07 | 76 | 1008.3 |
| 20260506115912 | 52 | 29 | 4.3 | 8.7 | 0.00 | 0.07 | 0.07 | 76 | 1008.3 |
| 20260506115413 | 51 | 20 | 4.3 | 9.6 | 0.00 | 0.07 | 0.07 | 76 | 1008.3 |
| 20260506115221 | 51 | 72 | 4.3 | 9.6 | 0.00 | 0.07 | 0.07 | 76 | 1008.3 |
| 20260506114411 | 51 | 66 | 3.5 | 9.6 | 0.00 | 0.07 | 0.07 | 76 | 1008.3 |
| 20260506113910 | 51 | 346 | 2.6 | 8.7 | 0.00 | 0.07 | 0.07 | 77 | 1008.3 |
| 20260506113410 | 51 | 53 | 3.5 | 7.8 | 0.00 | 0.07 | 0.07 | 77 | 1008.3 |
| 20260506113226 | 51 | 46 | 3.5 | 9.6 | 0.00 | 0.07 | 0.07 | 78 | 1008.3 |
| 20260506112407 | 51 | 26 | 4.3 | 13.0 | 0.00 | 0.07 | 0.07 | 77 | 1008.3 |
| 20260506111915 | 51 | 16 | 2.6 | 7.0 | 0.00 | 0.07 | 0.07 | 81 | 1008.3 |
| 20260506111907 | 51 | 325 | 3.5 | 13.0 | 0.00 | 0.07 | 0.07 | 78 | 1008.3 |
| 20260506111608 | 51 | 343 | 2.6 | 6.1 | 0.00 | 0.07 | 0.07 | 82 | 1008.3 |
| 20260506111532 | 51 | 336 | 3.5 | 8.7 | 0.00 | 0.07 | 0.07 | 80 | 1008.3 |
| 20260506105906 | 50 | 19 | 2.6 | 8.7 | 0.00 | 0.07 | 0.07 | 82 | 1008.3 |
| 20260506105405 | 50 | 328 | 3.5 | 8.7 | 0.00 | 0.07 | 0.07 | 82 | 1008.2 |
| 20260506104906 | 50 | 339 | 3.5 | 8.7 | 0.00 | 0.07 | 0.07 | 82 | 1008.3 |
| 20260506104405 | 50 | 26 | 3.5 | 8.7 | 0.00 | 0.07 | 0.07 | 82 | 1008.3 |
| 20260506103904 | 50 | 309 | 3.5 | 10.4 | 0.00 | 0.07 | 0.07 | 82 | 1008.3 |
| 20260506103405 | 50 | 36 | 2.6 | 10.4 | 0.00 | 0.07 | 0.07 | 82 | 1008.3 |
| 20260506102902 | 50 | 0 | 2.6 | 7.8 | 0.00 | 0.07 | 0.07 | 82 | 1008.1 |
| 20260506102402 | 50 | 329 | 2.6 | 7.0 | 0.00 | 0.07 | 0.07 | 81 | 1008.2 |
| 20260506101858 | 50 | 355 | 2.6 | 7.0 | 0.00 | 0.07 | 0.07 | 81 | 1008.1 |
| 20260506101354 | 50 | 22 | 3.5 | 8.7 | 0.00 | 0.07 | 0.07 | 81 | 1008.1 |
| 20260506100846 | 50 | 5 | 3.5 | 9.6 | 0.00 | 0.07 | 0.07 | 81 | 1008.1 |
| 20260506100340 | 50 | 340 | 2.6 | 9.6 | 0.00 | 0.07 | 0.07 | 82 | 1008.0 |
| 20260506100213 | 50 | 48 | 2.6 | 5.2 | 0.00 | 0.07 | 0.07 | 82 | 1007.9 |
| 20260506095339 | 50 | 11 | 2.6 | 7.0 | 0.00 | 0.07 | 0.07 | 82 | 1007.9 |
| 20260506094836 | 50 | 324 | 2.6 | 7.0 | 0.00 | 0.07 | 0.07 | 82 | 1007.9 |
| 20260506094335 | 50 | 304 | 2.6 | 7.0 | 0.00 | 0.07 | 0.07 | 82 | 1007.9 |
| 20260506093834 | 49 | 42 | 2.6 | 8.7 | 0.00 | 0.07 | 0.07 | 83 | 1007.9 |
| 20260506093333 | 49 | 19 | 2.6 | 8.7 | 0.00 | 0.07 | 0.07 | 83 | 1007.9 |
| 20260506092836 | 49 | 43 | 3.5 | 7.8 | 0.00 | 0.07 | 0.07 | 83 | 1007.8 |
| 20260506092637 | 49 | 346 | 2.6 | 7.8 | 0.00 | 0.07 | 0.07 | 83 | 1007.8 |
| 20260506091833 | 49 | 87 | 2.6 | 7.8 | 0.00 | 0.07 | 0.07 | 84 | 1007.8 |
| 20260506091333 | 49 | 0 | 2.6 | 9.6 | 0.00 | 0.07 | 0.07 | 83 | 1007.8 |
| 20260506090831 | 49 | 90 | 3.5 | 9.6 | 0.00 | 0.07 | 0.07 | 84 | 1007.9 |
| 20260506090331 | 49 | 5 | 3.5 | 8.7 | 0.00 | 0.07 | 0.07 | 84 | 1007.8 |
| 20260506085830 | 49 | 37 | 4.3 | 10.4 | 0.00 | 0.07 | 0.07 | 84 | 1007.7 |
| 20260506085330 | 49 | 339 | 3.5 | 10.4 | 0.00 | 0.07 | 0.07 | 85 | 1007.7 |
| 20260506084829 | 49 | 65 | 3.5 | 7.8 | 0.00 | 0.07 | 0.07 | 87 | 1007.7 |
| 20260506084330 | 49 | 93 | 3.5 | 8.7 | 0.00 | 0.07 | 0.07 | 87 | 1007.7 |
| 20260506083825 | 49 | 67 | 3.5 | 8.7 | 0.00 | 0.07 | 0.07 | 88 | 1007.6 |
| 20260506083324 | 49 | 61 | 3.5 | 8.7 | 0.00 | 0.07 | 0.07 | 89 | 1007.6 |
| 20260506082824 | 49 | 0 | 4.3 | 10.4 | 0.00 | 0.07 | 0.07 | 90 | 1007.6 |
| 20260506082345 | 49 | 24 | 3.5 | 10.4 | 0.00 | 0.07 | 0.07 | 91 | 1007.5 |
| 20260506082336 | 48 | 36 | 4.3 | 10.4 | 0.00 | 0.07 | 0.07 | 91 | 1007.5 |
| 20260506082040 | 49 | 0 | 3.5 | 7.8 | 0.00 | 0.07 | 0.07 | 91 | 1007.5 |
| 20260506081950 | 49 | 11 | 3.5 | 10.4 | 0.00 | 0.07 | 0.07 | 91 | 1007.5 |
| 20260506080323 | 49 | 5 | 3.5 | 7.8 | 0.00 | 0.07 | 0.07 | 91 | 1007.5 |
| 20260506073324 | 49 | 59 | 2.6 | 7.0 | 0.00 | 0.07 | 0.07 | 92 | 1007.2 |
| 20260506073132 | 49 | 31 | 2.6 | 7.8 | 0.00 | 0.07 | 0.07 | 92 | 1007.2 |
| 20260506072629 | 49 | 5 | 2.6 | 9.6 | 0.00 | 0.07 | 0.07 | 93 | 1007.1 |
| 20260506072133 | 49 | 324 | 2.6 | 9.6 | 0.00 | 0.07 | 0.07 | 93 | 1007.1 |
| 20260506071322 | 49 | 63 | 2.6 | 7.8 | 0.00 | 0.07 | 0.07 | 93 | 1007.1 |
| 20260506070822 | 49 | 0 | 2.6 | 7.8 | 0.00 | 0.07 | 0.07 | 93 | 1007.1 |
| 20260506070451 | 49 | 304 | 2.6 | 7.8 | 0.00 | 0.07 | 0.07 | 93 | 1007.0 |
| 20260506070418 | 49 | 329 | 2.6 | 7.8 | 0.00 | 0.07 | 0.07 | 93 | 1007.0 |
| 20260506061814 | 48 | 355 | 1.7 | 5.2 | 0.01 | 0.07 | 0.07 | 94 | 1007.0 |
| 20260506061313 | 48 | 337 | 2.6 | 7.0 | 0.01 | 0.07 | 0.07 | 94 | 1006.9 |
| 20260506060813 | 48 | 348 | 1.7 | 7.0 | 0.01 | 0.07 | 0.07 | 94 | 1006.8 |
| 20260506060317 | 48 | 346 | 0.9 | 6.1 | 0.01 | 0.07 | 0.07 | 94 | 1006.8 |
| 20260506060143 | 48 | 24 | 0.9 | 3.5 | 0.01 | 0.07 | 0.07 | 94 | 1006.8 |
| 20260506051109 | 48 | 346 | 1.7 | 5.2 | 0.01 | 0.06 | 0.06 | 94 | 1006.8 |
| 20260506050658 | 48 | 5 | 1.7 | 4.3 | 0.01 | 0.06 | 0.06 | 94 | 1006.8 |
| 20260506050346 | 48 | 28 | 1.7 | 5.2 | 0.01 | 0.06 | 0.06 | 94 | 1006.8 |
| 20260506044803 | 48 | 57 | 2.6 | 7.0 | 0.02 | 0.06 | 0.06 | 94 | 1006.8 |
| 20260506044303 | 48 | 5 | 2.6 | 7.0 | 0.02 | 0.06 | 0.06 | 94 | 1006.9 |
| 20260506044059 | 48 | 329 | 1.7 | 5.2 | 0.02 | 0.06 | 0.06 | 94 | 1006.9 |
| 20260506043253 | 48 | 325 | 2.6 | 7.8 | 0.01 | 0.06 | 0.06 | 94 | 1006.9 |
| 20260506042751 | 48 | 5 | 1.7 | 7.8 | 0.01 | 0.06 | 0.06 | 95 | 1006.8 |
| 20260506042250 | 48 | 319 | 1.7 | 3.5 | 0.02 | 0.06 | 0.06 | 95 | 1006.9 |